Maxwell AFB, AL

10:35 PM CDT on March 24, 2017 (GMT -0500)
Maxwell Air Force Base

Weather History for KMXF - August, 2013

Change the Weather History Date:

Wednesday, August 7, 2013

  Actual Average Record
Temperature  
Mean Temperature 82 °F -  
Max Temperature 92 °F 90 °F 99 °F (2007)
Min Temperature 72 °F 72 °F 66 °F (2004)
Cooling Degree Days 17    
Growing Degree Days 32 (Base 50)    
Moisture  
Dew Point 74 °F    
Average Humidity 78    
Maximum Humidity 98    
Minimum Humidity 55    
Precipitation  
Precipitation 0.16 in - - ()
Sea Level Pressure  
Sea Level Pressure 29.98 in    
Wind  
Wind Speed 4 mph (East)    
Max Wind Speed 16 mph    
Max Gust Speed 26 mph    
Visibility 9 miles    
Events Rain , Thunderstorm    
Averages and records for this station are not official NWS values.
T = Trace of Precipitation, MM = Missing Value Source: NWS Daily Summary

Daily Weather History Graph

Daily Weather History Graph

Search for Another Location

Airport or City:

Trip Planner

Search our weather history database for the weather conditions in past years. The results will help you decide how hot, cold, wet, or windy it might be!

Date:

Astronomy

Aug. 07, 2013 Rise Set
Actual Time 6:04 AM CDT 7:37 PM CDT
Civil Twilight 5:37 AM CDT 8:03 PM CDT
Nautical Twilight 5:06 AM CDT 8:35 PM CDT
Astronomical Twilight 4:33 AM CDT 9:08 PM CDT
Moon 6:46 AM CDT (8/7) 7:52 PM CDT (8/7)
Length of Visible Light 14h 26m
Length of Day
13h 33m
New Moon, 1% of the Moon is Illuminated
Aug 7
New Moon
Aug 14
First Quarter
Aug 20
Full
Aug 28
Last Quarter
Sep 5
New

Hourly Weather History & Observations

Time (CDT) Temp. Heat Index Dew Point Humidity Pressure Visibility Wind Dir Wind Speed Gust Speed Precip Events Conditions
12:58 AM 74.1 °F - 72.7 °F 95% 29.98 in 10.0 mi NW 3.5 mph - N/A   Partly Cloudy
1:58 AM 74.8 °F - 72.7 °F 93% 29.96 in 10.0 mi West 2.3 mph - N/A   Overcast
2:58 AM 74.3 °F - 73.0 °F 96% 29.98 in 10.0 mi Calm Calm - N/A   Overcast
3:58 AM 73.8 °F - 72.7 °F 96% 29.96 in 10.0 mi Calm Calm - N/A   Partly Cloudy
4:58 AM 73.4 °F - 72.9 °F 98% 29.97 in 9.0 mi Calm Calm - N/A   Mostly Cloudy
5:58 AM 72.5 °F - 72.0 °F 98% 29.99 in 7.0 mi Calm Calm - N/A   Clear
6:58 AM 75.7 °F - 74.5 °F 96% 30.00 in 10.0 mi East 1.2 mph - N/A   Mostly Cloudy
7:58 AM 79.5 °F - 74.1 °F 83% 30.01 in 10.0 mi Variable 4.6 mph - N/A   Mostly Cloudy
8:58 AM 80.2 °F 84.9 °F 73.9 °F 81% 30.03 in 10.0 mi NNE 2.3 mph - N/A   Scattered Clouds
9:58 AM 84.2 °F 91.6 °F 74.3 °F 72% 30.03 in 10.0 mi Variable 3.5 mph - N/A   Clear
10:58 AM 87.4 °F 95.8 °F 73.9 °F 64% 30.03 in 10.0 mi South 4.6 mph - N/A   Clear
11:58 AM 88.9 °F 95.6 °F 72.0 °F 57% 30.01 in 10.0 mi Variable 2.3 mph - N/A   Clear
12:58 PM 90.7 °F 99.6 °F 73.6 °F 57% 29.99 in 10.0 mi SSW 4.6 mph - N/A   Clear
1:58 PM 91.2 °F 100.8 °F 73.9 °F 57% 29.98 in 10.0 mi South 3.5 mph - N/A   Partly Cloudy
2:57 PM 91.4 °F 100.1 °F 73.4 °F 55% 29.95 in 10.0 mi South 5.8 mph - N/A   Clear
2:58 PM 91.6 °F 101.1 °F 74.1 °F 56% 29.95 in 10.0 mi South 5.8 mph - N/A   Clear
3:58 PM 92.8 °F 104.1 °F 75.2 °F 56% 29.94 in 10.0 mi Variable 4.6 mph - N/A   Partly Cloudy
4:58 PM 92.5 °F 105.3 °F 76.1 °F 59% 29.94 in 10.0 mi South 8.1 mph - N/A   Partly Cloudy
5:58 PM 91.4 °F 102.5 °F 75.2 °F 59% 29.94 in 10.0 mi South 5.8 mph - N/A   Clear
6:19 PM 87.8 °F 97.6 °F 75.2 °F 66% 29.93 in 10.0 mi East 9.2 mph - N/A Thunderstorm Thunderstorm
6:20 PM 87.8 °F 97.6 °F 75.2 °F 66% 29.93 in 10.0 mi East 9.2 mph - N/A Thunderstorm Thunderstorm
6:36 PM 86.0 °F 95.1 °F 75.2 °F 70% 29.93 in 10.0 mi ESE 12.7 mph - N/A Thunderstorm Mostly Cloudy
6:46 PM 86.0 °F 95.1 °F 75.2 °F 70% 29.92 in 10.0 mi ESE 11.5 mph - N/A   Mostly Cloudy
6:58 PM 85.5 °F 91.5 °F 72.1 °F 64% 29.94 in 10.0 mi East 10.4 mph - N/A   Partly Cloudy
7:58 PM 82.4 °F 89.5 °F 75.2 °F 79% 29.96 in 10.0 mi Calm Calm - N/A   Clear
8:58 PM 80.6 °F 86.2 °F 75.2 °F 84% 30.00 in 10.0 mi NE 13.8 mph - N/A   Mostly Cloudy
9:10 PM 78.8 °F - 73.4 °F 83% 29.99 in 10.0 mi NE 16.1 mph 26.5 mph N/A Thunderstorm Thunderstorm
9:12 PM 78.8 °F - 73.4 °F 83% 29.99 in 10.0 mi NE 16.1 mph 26.5 mph N/A Rain , Thunderstorm Light Thunderstorms and Rain
9:31 PM 77.0 °F - 73.4 °F 89% 30.01 in 2.5 mi NE 10.4 mph - N/A Rain , Thunderstorm Heavy Thunderstorms and Rain
9:41 PM 77.0 °F - 73.4 °F 89% 30.02 in 3.0 mi NNE 8.1 mph - N/A Rain , Thunderstorm Heavy Thunderstorms and Rain
9:58 PM 77.0 °F - 75.2 °F 94% 30.01 in 6.0 mi NNE 5.8 mph - 0.13 in Rain , Thunderstorm Light Thunderstorms and Rain
10:16 PM 77.0 °F - 75.2 °F 94% 30.02 in 9.0 mi North 4.6 mph - N/A Rain Light Rain
10:44 PM 75.2 °F - 73.4 °F 94% 30.00 in 10.0 mi NE 4.6 mph - N/A   Partly Cloudy
10:58 PM 75.2 °F - 73.4 °F 94% 30.01 in 10.0 mi East 4.6 mph - 0.03 in   Clear
11:58 PM 75.2 °F - 73.4 °F 94% 30.00 in 10.0 mi South 4.6 mph - N/A   Clear